Flag for Canada Weather past 2 weeks in Montreal, Quebec, Canada

Now
41 °F

Light rain. Mostly cloudy.


Feels Like: 38 °F
Forecast: 43 / 56 °F
Wind: 5 mph from North

Location: Montreal - Pierre Elliot Trudeau International Aiport

Current Time: Apr 27, 2015 at 6:38:45 AM

Latest Report: Apr 27, 2015 at 6:00 AM


Visibility: 15 mi

Pressure: 29.72 "Hg

Humidity: 93%

Dew point: 39 °F

Location of MontrealLocation

Historic Weather in Montreal — Graph

°F

Montreal temperature yesterday

Maximum temperature yesterday: 54 °F (at 4:00 PM)
Minimum temperature yesterday: 39 °F (at 6:00 AM)
Average temperature yesterday: 46 °F

Past Weeks' High & Low Weather Summary

 TemperatureHumidityPressure
High72 °F (Apr 13, 2:00 PM)100% (Apr 21, 9:00 AM)30.48 "Hg (Apr 21, 9:00 AM)
Low32 °F (Apr 16, 4:00 AM)11% (Apr 15, 5:00 PM)29.50 "Hg (Apr 21, 7:56 AM)
Average47 °F56%29.92 "Hg
* Reported Apr 12 5:00 AM — Apr 27 5:00 AM, Montreal, Weather by CustomWeather, © 2015

Note: Actual official high and low records may vary slightly from our data, if they occured in-between our weather recording intervals... More about our weather records

Advertising

Montreal weather history for previous 24 hours

 ConditionsComfort  
Time TempWeatherWind HumidityBarometerVisibility
5:00 AM
Mon, Apr 27
41 °FMostly cloudy.6 mph93%29.70 "Hg15 mi
4:00 AM41 °FSprinkles. Mostly cloudy.7 mph87%29.69 "Hg15 mi
3:00 AM43 °FSprinkles. Mostly cloudy.7 mph76%29.69 "Hg15 mi
2:00 AM43 °FPassing clouds.8 mph76%29.69 "Hg15 mi
1:00 AM45 °FPassing clouds.6 mph71%29.69 "Hg15 mi
12:00 AM45 °FPassing clouds.5 mph76%29.70 "Hg15 mi
11:00 PM
Sun, Apr 26
45 °FPassing clouds.6 mph71%29.70 "Hg15 mi
10:00 PM46 °FPartly cloudy.6 mph71%29.70 "Hg15 mi
9:00 PM46 °FSprinkles. Partly cloudy.5 mph82%29.71 "Hg15 mi
8:00 PM46 °FSprinkles. More clouds than sun.6 mph82%29.71 "Hg30 mi
7:00 PM48 °FSprinkles. Mostly cloudy.13 mph71%29.70 "Hg30 mi
6:00 PM52 °FSprinkles. Overcast.10 mph50%29.68 "Hg30 mi
5:00 PM54 °FScattered showers. Cloudy.6 mph44%29.68 "Hg30 mi
4:00 PM54 °FMostly cloudy.5 mph47%29.68 "Hg30 mi
3:00 PM52 °FMostly cloudy.6 mph50%29.69 "Hg30 mi
2:00 PM52 °FPartly sunny.10 mph50%29.70 "Hg30 mi
1:00 PM52 °FPartly sunny.2 mph50%29.71 "Hg30 mi
12:00 PM50 °FBroken clouds.12 mph50%29.72 "Hg30 mi
11:00 AM48 °FPartly sunny.9 mph58%29.72 "Hg30 mi
10:00 AM46 °FPartly sunny.6 mph57%29.73 "Hg30 mi
9:00 AM43 °FBroken clouds.3 mph66%29.74 "Hg15 mi
8:00 AM41 °FPartly sunny.7 mph66%29.75 "Hg15 mi
7:00 AM39 °FPassing clouds.6 mph75%29.73 "Hg15 mi
6:00 AM39 °FPassing clouds.6 mph70%29.73 "Hg15 mi
Weather by CustomWeather, © 2015

See weather overviewHow to use our weather pages